www.pogodaiklimat.ru

Погода и климат >> Архив погоды >> Аргентина >> Ресистенсия


ПОГОДА в Ресистенсии

  • Прогноз погоды в Ресистенсии
  • Монитор погоды в Ресистенсии

АРХИВ ПОГОДЫ в Ресистенсии

Время (UTC), дата Ветер
(напр.,м/с)
 
Видим.   Явления Облачность Т
(С)
Тd
(С)
f
(%)
Тe
(С)
Тes
(С)
Комфортность P
(гПа)
Po
(гПа)
Тmin
(С)
Tmax
(С)
R
(мм)
R24
(мм)
S
(см)
12 12.06 СВ 4 7000 м дым 9/0
[Ac As Cs]
+22.2 +19.4 84 +28 +28 душно 1010.6 1004.6 +20.1 +22.5
15 12.06 С 6 8000 м дым 9/0
[Ac und Cs]
+28.3 +20.9 64 +35 +38 очень
душно
1010.5 1004.5
18 12.06 С 6 12 км дым 9/4 1260 м
[Cu hum Cs]
+30.2 +20.9 58 +38 +39 очень
душно
1007.7 1001.7
21 12.06 В 3 10 км дым 9/0
[Ac und Cs]
+26.7 +21.4 73 +34 +34 очень
душно
1008.2 1002.2
00 13.06 СВ 5 15 км 10/0
[Ac As]
+25.9 +20.8 73 +32 +32 очень
душно
1009.5 1003.4 +22.2 +30.8
03 13.06 СВ 4 15 км 10/0
[Ac As]
+24.7 +20.6 78 +31 +31 очень
душно
1010.4 1004.4
06 13.06 СВ 6 15 км 10/0
[Ac As]
+24.7 +20.3 77 +31 +31 очень
душно
1009.6 1003.7
09 13.06 СВ 7 15 км ясно +23.5 +19.5 78 +29 +29 душно 1009.4 1003.4
12 13.06 СВ 6 15 км 8/0
[Ac und Cs]
+24.4 +19.3 73 +29 +30 душно 1011.0 1005.0 +22.4 +26.0
15 13.06 СВ 9 10 км дым 9/0
[Cs]
+28.2 +20.1 61 +34 +35 очень
душно
1010.5 1004.5
18 13.06 С 9 10 км дым 9/0
[Ac As Cs]
+30.1 +19.0 51 +35 +36 очень
душно
1007.1 1001.2
21 13.06 СВ 4 8000 м дым 9/0
[Ac As Cs]
+27.0 +19.9 65 +33 +33 очень
душно
1006.7 1000.6
00 14.06 В 3 10 км дым 10/0
[Ac As]
+24.3 +20.5 79 +30 +30 очень
душно
1009.5 1003.4 +24.2 +30.7
03 14.06 В 3 15 км 10/0
[Ac As]
+23.9 +19.4 76 +29 +29 душно 1011.4 1005.4
06 14.06 В 2 15 км 9/0
[Ac As]
+23.0 +20.1 84 +30 +30 очень
душно
1011.2 1005.2
09 14.06 СВ 1 15 км 9/0
[Ac As]
+22.0 +20.9 93 +28 +28 душно 1010.8 1004.8
12 14.06 С 5 8000 м дым 9/0
[Ac As Cs]
+23.6 +18.4 73 +28 +28 душно 1012.2 1006.2 +21.5 +24.3
15 14.06 СЗ 4 8000 м дым 9/0
[Ac As Cs]
+27.9 +20.1 63 +34 +38 очень
душно
1013.3 1007.3
18 14.06 С 3 10 км дым 9/0
[Ac As Cs]
+28.6 +20.2 60 +35 +37 очень
душно
1011.2 1005.2
21 14.06 В 2 7000 м дым 9/3 1500 м
[Sc Ac cuf Cs]
+25.7 +21.4 77 +33 +33 очень
душно
1010.7 1004.6
00 15.06 В 2 10 км дым 6/0
[Ac As]
+23.8 +20.6 82 +30 +30 очень
душно
1011.7 1005.7 +23.5 +29.3
03 15.06 СВ 4 10 км дым 10/0
[Ac As]
+24.3 +20.0 77 +30 +30 очень
душно
1012.0 1006.0
06 15.06 СВ 3 10 км дым 10/0
[Ac As]
+23.5 +19.8 80 +29 +29 душно 1011.5 1005.4
09 15.06 СВ 4 15 км дым 10/0
[Ac As]
+23.0 +19.3 80 +29 +29 очень
душно
1011.3 1005.3
12 15.06 СВ 4 15 км 9/0
[Ac As Cs]
+22.6 +19.2 81 +29 +29 очень
душно
1012.8 1006.8 +21.5 +24.6
15 15.06 С 4 15 км 9/0
[Ac As Cs]
+24.8 +20.2 76 +31 +33 очень
душно
1013.6 1007.6
18 15.06 С 6 15 км 8/0
[Cs]
+28.6 +20.2 60 +35 +37 очень
душно
1010.9 1004.9
21 15.06 ЮЗ 4 15 км 9/5 1140 м
[Sc Ac As Cs]
+23.6 +20.9 85 +30 +30 очень
душно
1012.0 1006.0
00 16.06 З 3 15 км 9/9 180 м
[St]
+19.5 +18.5 94 +22 +22 комфорт 1014.6 1008.5 +19.4 +28.9
03 16.06 З 6 15 км 10/10 120 м
[St]
+17.7 +16.7 94 +17 +17 1016.1 1010.0
06 16.06 З 5 15 км 10/10 210 м
[St]
+15.3 +14.8 97 +14 +14 1017.2 1011.0
09 16.06 З 5 6000 м дымка 10/10 150 м
[St]
+14.2 +13.8 97 +12 +12 1017.5 1011.3
12 16.06 ЮЗ 4 15 км 10/10 270 м
[St]
+13.8 +12.3 91 +12 +12 1020.5 1014.4 +13.1 +19.6
15 16.06 З 3 15 км 10/10 420 м
[St]
+15.6 +12.5 82 +15 +15 1021.5 1015.3
18 16.06 З 4 15 км 10/10 420 м
[Sc]
+15.0 +12.1 83 +14 +14 1019.7 1013.6
21 16.06 ЮЗ 2 15 км 10/10 540 м
[Sc]
+15.1 +12.2 83 +15 +15 1020.2 1013.8
00 17.06 ЮЗ 4 15 км 10/10 270 м
[St]
+13.8 +12.3 91 +12 +12 1021.7 1015.4 +13.7 +17.0
03 17.06 З 3 3000 м слаб. морось 10/10 150 м
[St]
+12.7 +12.3 97 +11 +11 1022.6 1016.4
06 17.06 Ю 2 15 км {морось} 10/10 210 м
[St]
+12.6 +12.2 97 +12 +12 1020.9 1014.6 0.0
09 17.06 З 3 15 км 10/10 180 м
[St]
+13.0 +12.3 96 +12 +12 1021.1 1014.8
12 17.06 ЮЗ 2 15 км 10/10 240 м
[St]
+13.5 +12.4 93 +13 +13 1021.2 1014.9 +12.2 +13.8 0.0
15 17.06 ЮЗ 3 15 км 10/10 300 м
[St]
+15.2 +12.7 85 +15 +15 1021.3 1015.0
18 17.06 З 3 15 км 10/10 300 м
[St]
+15.0 +13.0 88 +14 +14 1017.1 1010.8
21 17.06 В 2 8000 м 9/5 400 м
[St Ac As Ci fib]
+15.1 +13.1 88 +15 +15 1015.8 1009.6
00 18.06 СВ 3 6000 м дымка 10/10 120 м
[St]
+15.2 +14.9 98 +14 +14 1014.9 1008.6 +13.4 +15.7
03 18.06 З 4 6000 м дымка 10/10 90 м
[St]
+14.9 +14.7 99 +14 +14 1016.2 1010.0
06 18.06 З 3 10 км дымка 10/10 150 м
[St]
+15.0 +14.5 97 +14 +14 1015.5 1009.3
09 18.06 СЗ 1 10 км дымка 10/10 360 м
[St]
+14.8 +14.3 97 +15 +15 1015.1 1008.9
12 18.06 З 5 15 км 10/10 210 м
[St]
+14.6 +13.7 94 +13 +13 1017.4 1011.2 +14.5 +15.2
15 18.06 ЮЗ 5 15 км {морось} 10/10 400 м
[St]
+14.8 +12.1 84 +13 +13 1018.2 1012.0
18 18.06 ЮЗ 3 10 км в посл. час дождь {морось} туман 10/10 450 м
[St]
+14.0 +12.2 89 +13 +13 1016.4 1010.2 0.0
21 18.06 ЮЗ 3 15 км 10/6 570 м
[Sc Ac As]
+13.9 +11.1 83 +13 +13 1016.9 1010.6
00 19.06 Ю 2 15 км 10/10 660 м
[Sc]
+13.2 +11.3 88 +13 +13 1018.3 1012.0 +13.1 +15.0
03 19.06 З 3 15 км 9/0
[Ac As]
+13.0 +11.7 92 +12 +12 1020.8 1014.5
06 19.06 З 2 15 км 1/0
[Ac trans]
+11.0 +9.6 91 +10 +10 1020.4 1014.1
09 19.06 Ю 2 15 км ясно +8.8 +8.4 97 +7 +7 1020.8 1014.5

 

Местоположение метеостанции Ресистенсия (Аргентина): широта -27.45 долгота -59.05 высота над уровнем моря 52 м.

В архиве по умолчанию представлена погода в Ресистенсии за последнюю неделю. Архивные данные за месяц целиком и за предыдущие месяцы, начиная с января 2011 года, Вы можете получить, выбрав интересующий диапазон дат из раскрывающегося списка и нажав кнопку "Ввод!".


*Определитесь, кто Вы:
робот инопланетянин человек

Внимание! Время в таблицах - всемирное. Для получения местного времени необходимо прибавить поправку, которая равна -3 ч.

Смотрите также архив погоды в соседних городах и на ближайших метеорологических станциях:

Погода в Корриентесе (Аргентина) (29 км)
Погода в Пиларе (Парагвай) (99 км)
Погода в Формосе (Аргентина) (161 км)
Погода в Пресиденсиа-Роке-Саэнс-Пеньи (Аргентина) (163 км)
Погода в Реконкисте (Аргентина) (203 км)
Погода в Сан Хуан Батистута (Парагвай) (208 км)
Погода в Куйкуйо (Парагвай) (247 км)
Погода в Парагуари (Парагвай) (278 км)
Погода в Асунсьоне (Парагвай) (289 км)
Погода в Грал Бругуез (Парагвай) (300 км)

Пояснения к столбцам:

Ветер - указаны скорость ветра в м/с - средняя за 10 мин, порывы в срок и между сроками (в фигурных скобках) и направление, откуда дует ветер: С - северный, СВ - северо-восточный, В - восточный, ЮВ - юго-восточный, Ю - южный, ЮЗ - юго-западный, З - западный, СЗ - северо-западный.
Видимость - горизонтальная дальность видимости в метрах или километрах. При видимости от 1 до 10 км при отсутствии осадков обычно наблюдается дымка, при ухудшении видимости до 1 км и менее - туман. В сухую погоду видимость может ухудшаться дымом, пылью или мглою.
Явления - указаны атмосферные явления, наблюдавшиеся в срок или в последний час перед сроком; фигурными скобками обозначены явления, наблюдавшиеся между сроками (за 1-3 часа до срока); квадратными скобками обозначены град или гололедные отложения с указанием их диаметра в мм.
Облачность - указаны через наклонную черту общая и нижняя облачность в баллах и высота нижней границы облаков в метрах; квадратными скобками обозначены формы облаков: Ci - перистые, Cs - перисто-слоистые, Cc - перисто-кучевые, Ac - высококучевые, As - высокослоистые, Sc - слоисто-кучевые, Ns - слоисто-дождевые, Cu - кучевые, Cb - кучево-дождевые. Подробнее классификацию облаков см. в Атласе облаков (PDF).
T - Температура воздуха - температура, измеренная на высоте 2 м над землей.
Td - Температура точки росы - температура, при понижении до которой содержащийся в воздухе водяной пар достигнет насыщения.
f - Относительная влажность воздуха - влажноcть воздуха, измеренная на высоте 2 м над землей.
Te - Эффективная температура - температура, которую ощущает одетый по сезону человек в тени. Характеристика душности погоды. При расчете учитывается влияние влажности воздуха и скорости ветра на теплоощущения человека.
Tes - Эффективная температура на солнце - температура, которую ощущает человек, с поправкой на солнечный нагрев. Характеристика знойности погоды. Зависит от высоты солнца над горизонтом, облачности и скорости ветра. Ночью, в пасмурную погоду, а также при ветре 12 м/с и более поправка равна нулю.
P - Атмосферное давление - приведенное к уровню моря атмосферное давление.
Po - Атмосферное давление - измеренное на уровне метеостанции атмосферное давление.
Tmin - Минимальная температура - минимум температуры воздуха на высоте 2 м над землей.
Tmax - Максимальная температура - максимум температуры воздуха на высоте 2 м над землей.
R - Количество осадков - Количество выпавших осадков за период времени, мм. При наведении курсора мыши на число - период времени, за который выпало указанное количество осадков.
R24 - Количество осадков - Количество выпавших осадков за 24 часа, мм.
S - Снежный покров - Высота снежного покрова, см. При наведении курсора мыши на число - состояние снежного покрова и степень покрытия местности в баллах.